This demonstration page uses our WeatherBlox Daily Observations layout. Learn more.

Left ArrowRight Arrow

30.21309, -93.2044

Hourly Observations for March 31, 2015

Temp ( °F °C ) Dew Point ( °F °C ) Humidity (%) Winds ( mph kmh ) Pressure ( in mb ) Visibility ( mi km ) Precip ( " mm )
12:15 am 00:15 Mostly Cloudy with Fog 60 15.5 60 15.4 99 99 S 3 6 30.12 1020 1 1 0.00 0.00
12:35 am 00:35 Partly Cloudy with Mist and Fog 60 15.6 60 15.6 100 100 S 5 7 30.12 1020 5 8 0.00 0.00
12:55 am 00:55 Partly Cloudy with Mist and Fog 60 15.8 60 15.8 100 100 S 3 6 30.12 1020 3 5 0.00 0.00
1:15 am 01:15 Mostly Cloudy with Fog 59 15 59 14.9 99 99 S 5 7 30.12 1020 1 1 0.00 0.00
1:35 am 01:35 Mostly Cloudy with Mist and Fog 60 15.3 60 15.3 100 100 S 3 6 30.12 1020 1 2 0.00 0.00
1:55 am 01:55 Mostly Cloudy with Fog 59 15 59 15 100 100 S 3 6 30.12 1020 1 1 0.00 0.00
2:15 am 02:15 Clear 62 16.5 62 16.5 100 100 S 5 7 30.12 1020 7 11 0.00 0.00
2:35 am 02:35 Mostly Cloudy with Mist and Fog 58 14.2 57 14.1 99 99 S 5 7 30.12 1020 1 1 0.00 0.00
2:55 am 02:55 Cloudy with Fog 58 14.6 58 14.6 100 100 S 3 6 30.09 1019 0 0 0.00 0.00
3:15 am 03:15 Cloudy with Fog 59 15 59 15 100 100 SSE 3 6 30.09 1019 0 0 0.00 0.00
3:35 am 03:35 Cloudy with Fog 59 14.8 59 14.8 100 100 S 3 6 30.09 1019 1 1 0.00 0.00
3:55 am 03:55 Cloudy with Fog 58 14.7 58 14.7 100 100 S 3 6 30.09 1019 0 0 0.00 0.00
4:15 am 04:15 Cloudy with Fog 60 15.5 60 15.5 100 100 Calm 30.09 1019 0 0 0.00 0.00
4:35 am 04:35 Cloudy with Fog 59 15.1 59 15.1 100 100 SSE 3 6 30.06 1018 0 0 0.00 0.00
4:55 am 04:55 Cloudy with Fog 58 14.7 58 14.7 100 100 Calm 30.06 1018 0 0 0.00 0.00
5:15 am 05:15 Cloudy with Fog 59 14.9 59 14.9 100 100 Calm 30.09 1019 0 0 0.00 0.00
6:00 am 06:00 Mostly Cloudy with Fog 59 15 59 15 100 100 Calm 30.09 1019 1 1 0.00 0.00
6:50 am 06:50 Mostly Cloudy with Fog 59 15 59 15 100 100 Calm 30.09 1019 1 1 0.00 0.00
7:55 am 07:55 Mostly Cloudy with Fog 61 16 61 16 100 100 Calm 30.12 1020 1 1 0.00 0.00
8:50 am 08:50 Partly Cloudy 66 19 66 19 100 100 Calm 30.12 1020 7 11 0.00 0.00
9:45 am 09:45 Mostly Cloudy 70 21 66 19 88 88 SW 6 9 30.12 1020 10 16 0.00 0.00
10:50 am 10:50 Mostly Cloudy 75 24 63 17 65 65 SW 12 19 30.15 1021 10 16 0.00 0.00
11:45 am 11:45 Mostly Cloudy 75 24 61 16 61 61 SW 13 20 30.15 1021 10 16 0.00 0.00
12:45 pm 12:45 Mostly Cloudy 79 26 61 16 54 54 SW 13 20 30.12 1020 10 16 0.00 0.00
1:50 pm 13:50 Mostly Cloudy 81 27 59 15 48 48 SW 14 22 30.09 1019 10 16 0.00 0.00
9:50 pm 21:50 Mostly Clear 66 19 64 18 94 94 S 5 7 30.03 1017 10 16 0.00 0.00
10:15 pm 22:15 Clear 64 17.5 62 16.9 96 96 S 5 7 30.03 1017 10 16 0.00 0.00
10:35 pm 22:35 Clear 65 18.4 64 17.5 95 95 S 3 6 30.03 1017 10 16 0.00 0.00
10:55 pm 22:55 Clear 64 17.7 63 17.3 98 98 Calm 30.03 1017 10 16 0.00 0.00
11:15 pm 23:15 Clear 64 18 64 17.5 97 97 S 3 6 30.03 1017 10 16 0.00 0.00
11:35 pm 23:35 Clear 65 18.1 64 17.8 98 98 Calm 30.03 1017 10 16 0.00 0.00
11:55 pm 23:55 Clear 64 18 64 17.7 98 98 SSE 3 6 30.03 1017 7 11 0.00 0.00

Powered by AerisWeather